Погода в Хальмстаде

Швеция     56°40′29″N   12°52′53″E
темп.,
°C
ветер,
м/с
пор.,
м/с
влажн.,
%
обл.,
%
осадки,
мм/ч
давл.,
гПа
погр.,
м
8 августа, пн
пн823:00+13зюз269381 0.2 1022160
02:00+13юз249465 0.3 1022120
05:00+13ююз129578 0.3 102260
08:00+15зюз248617 0.3 1023590
11:00+17зюз3370100 0.2 1024912
14:00+20зюз336043 0.4 10241237
17:00+19зюз335825 0.2 10241117
20:00+17з23730 0.2 1025141
9 августа, вт
вт923:00+12с11940 0.0 102613
02:00+11св11940 0.0 102712
05:00+11всв11940 0.0 102712
08:00+16всв007137 0.0 1028174
11:00+21зюз2250100 0.0 10281081
14:00+22зюз4349100 0.0 10271313
17:00+21зюз344919 0.0 1027856
20:00+17з2369100 0.0 102783
10 августа, ср
ср1023:00+13ююз00867 0.0 102810
02:00+13ю1188100 0.0 102712
05:00+13ю119499 0.0 102712
08:00+17юз257351 0.0 1027435
11:00+21зюз455711 0.0 1027774
14:00+22зюз45546 0.0 1026843
17:00+22зюз35535 0.0 1026758
20:00+18зюз23700 0.0 102574
11 августа, чт
чт1123:00+15ююз11840 0.0 102513
02:00+14юз11940 0.0 102511
05:00+14юз11950 0.0 102511
08:00+18зюз25760 0.0 1025306
11:00+22зюз35542 0.0 1025725
14:00+24з45485 0.0 1024854
17:00+24з34475 0.0 1024734
20:00+20з11670 0.0 102316
12 августа, пт
пт1223:00+16ссв008199 0.0 102411
02:00+15вюв008078 0.0 102411
05:00+14вюв11820 0.0 102311
08:00+20ююв11625 0.0 1023127
11:00+26зюз22435 0.0 1023807
14:00+28з22365 0.0 10221384
17:00+28з323738 0.0 10211027
20:00+22зсз115896 0.0 102015